Location: McFarlands Corners
(41.4117°N, 81.3382°W)
Time: 17:58:12
(UTC+00:00)

Vanguard 1 Rocket - Pass Details

Date: 23 February 2026
Orbit: 653 x 4214 km, 34.3° (Epoch: 8 March)

Event Time Altitude Azimuth Distance (km) Brightness Sun altitude
Rises 15:16:18 0° 191° (S) 3,227 10.7 29.3°
Reaches altitude 10° 15:19:44 10° 164° (SSE) 2,615 11.0 29.8°
Maximum altitude 15:22:45 14° 134° (SE) 2,671 11.6 30.1°
Drops below altitude 10° 15:26:29 10° 106° (ESE) 3,414 11.3 30.6°
Sets 15:32:23 0° 84° (E) 5,169 11.6 31.3°
